Weather History for KRAP - November, 2011

Change the Weather History Date:

Saturday, November 12, 2011

  Actual Average Record
Temperature  
Mean Temperature 42 °F 36 °F  
Max Temperature 58 °F 49 °F 78 °F (1990)
Min Temperature 26 °F 24 °F -8 °F (1986)
Degree Days  
Heating Degree Days 23 29  
Month to date heating degree days 331 313  
Since 1 July heating degree days 942 1075  
Cooling Degree Days 0 0  
Month to date cooling degree days 0 0  
Year to date cooling degree days 699 636  
Moisture  
Dew Point 19 °F    
Average Humidity 46    
Maximum Humidity 73    
Minimum Humidity 19    
Precipitation  
Precipitation T in 0.02 in 0.24 in (1959)
Month to date precipitation 0.03 0.26  
Year to date precipitation 18.45 15.60  
Snow  
Snow 0.00 in 0.30 in 6.00 in (1959)
Month to date snowfall 0.2 2.4  
Since 1 July snowfall 0.2 4.2  
Since 1 September snowfall 0.2 4.2  
Snow Depth 0.00 in    
Sea Level Pressure  
Sea Level Pressure 29.34 in    
Wind  
Wind Speed 8 mph (NW)    
Max Wind Speed 35 mph    
Max Gust Speed 40 mph    
Visibility 10 miles    
Events Rain    
T = Trace of Precipitation, MM = Missing Value Source: NWS Daily Summary

Daily Weather History Graph

Daily Weather History Graph

Search for Another Location

Airport or City:

Trip Planner

Search our weather history database for the weather conditions in past years. The results will help you decide how hot, cold, wet, or windy it might be!

Date:

Astronomy

Nov. 12, 2011 Rise Set
Actual Time 6:43 AM MST 4:29 PM MST
Civil Twilight 6:12 AM MST 5:00 PM MST
Nautical Twilight 5:37 AM MST 5:34 PM MST
Astronomical Twilight 5:03 AM MST 6:08 PM MST
Moon 5:42 PM MST (11/12) 8:31 AM MST (11/12)
Length of Visible Light 10h 47m
Length of Day
9h 46m
Waning Gibbous, 97% of the Moon is Illuminated
Nov 12
Waning Gibbous
Nov 18
Last Quarter
Nov 24
New
Dec 2
First Quarter
Dec 10
Full

Hourly Weather History & Observations

Time (MST) Temp. Windchill Dew Point Humidity Pressure Visibility Wind Dir Wind Speed Gust Speed Precip Events Conditions
12:52 AM 37.0 °F 31.6 °F 12.9 °F 37% 29.42 in 10.0 mi NW 6.9 mph - N/A   Clear
1:52 AM 36.0 °F 31.1 °F 10.9 °F 36% 29.40 in 10.0 mi WNW 5.8 mph - N/A   Clear
2:52 AM 32.0 °F - 12.0 °F 44% 29.39 in 10.0 mi Calm Calm - N/A   Clear
3:52 AM 30.0 °F 25.2 °F 14.0 °F 51% 29.39 in 10.0 mi West 4.6 mph - N/A   Clear
4:52 AM 45.0 °F 42.6 °F 10.9 °F 25% 29.36 in 10.0 mi NNW 4.6 mph - N/A   Clear
5:52 AM 46.4 °F 41.5 °F 12.2 °F 25% 29.34 in 10.0 mi NW 10.4 mph - N/A   Clear
6:52 AM 42.1 °F - 12.0 °F 29% 29.37 in 10.0 mi Calm Calm - N/A   Clear
7:52 AM 44.1 °F 40.8 °F 14.0 °F 30% 29.35 in 10.0 mi NNW 5.8 mph - N/A   Clear
8:17 AM 50.0 °F - 14.0 °F 24% 29.34 in 10.0 mi West 12.7 mph - N/A   Clear
8:52 AM 50.0 °F - 15.1 °F 25% 29.37 in 10.0 mi WNW 9.2 mph - N/A   Clear
9:52 AM 54.0 °F - 18.0 °F 24% 29.35 in 10.0 mi WNW 9.2 mph 20.7 mph N/A   Clear
10:52 AM 55.0 °F - 19.0 °F 24% 29.36 in 10.0 mi NW 12.7 mph - N/A   Clear
11:52 AM 55.9 °F - 21.0 °F 26% 29.35 in 10.0 mi WNW 8.1 mph - N/A   Clear
12:52 PM 57.0 °F - 15.1 °F 19% 29.34 in 10.0 mi Calm Calm - N/A   Clear
1:52 PM 57.0 °F - 21.9 °F 26% 29.33 in 10.0 mi West 9.2 mph - N/A   Clear
2:52 PM 57.9 °F - 23.0 °F 26% 29.34 in 10.0 mi WNW 3.5 mph - N/A   Clear
3:52 PM 52.0 °F - 19.9 °F 28% 29.34 in 10.0 mi ENE 4.6 mph - N/A   Clear
4:52 PM 44.1 °F 40.1 °F 19.9 °F 38% 29.33 in 10.0 mi North 6.9 mph - N/A   Clear
5:52 PM 41.0 °F - 21.0 °F 45% 29.34 in 10.0 mi Calm Calm - N/A   Clear
6:52 PM 42.1 °F - 21.9 °F 45% 29.33 in 10.0 mi Calm Calm - N/A   Partly Cloudy
7:52 PM 46.0 °F 44.8 °F 21.9 °F 39% 29.29 in 10.0 mi NNE 3.5 mph - N/A   Overcast
8:52 PM 45.0 °F 38.9 °F 27.0 °F 49% 29.29 in 10.0 mi NNW 12.7 mph - N/A   Overcast
9:52 PM 43.0 °F 36.0 °F 28.0 °F 56% 29.26 in 10.0 mi NNW 13.8 mph - N/A   Mostly Cloudy
10:52 PM 41.0 °F 31.9 °F 33.1 °F 73% 29.28 in 10.0 mi NNW 19.6 mph 27.6 mph N/A   Overcast
11:52 PM 37.0 °F 24.5 °F 35.1 °F 93% 29.33 in 9.0 mi NNW 29.9 mph 36.8 mph 0.00 in Rain Light Rain